Weather reports worldwide

Advertisment
Cozzo Spadaro, Italy (16480): temperature & dewpoint: 19.09.2018 12:00:00 - 25.09.2018 12:00:00 (CEST)Cozzo Spadaro, Italy (16480): wind speed: 19.09.2018 12:00:00 - 25.09.2018 12:00:00 (CEST)Cozzo Spadaro, Italy (16480): wind direction: 19.09.2018 12:00:00 - 25.09.2018 12:00:00 (CEST)Cozzo Spadaro, Italy (16480): reduced air pressure: 19.09.2018 12:00:00 - 25.09.2018 12:00:00 (CEST)Cozzo Spadaro, Italy (16480): visibility: 19.09.2018 12:00:00 - 25.09.2018 12:00:00 (CEST)Cozzo Spadaro, Italy (16480): sunshine duration: 19.09.2018 12:00:00 - 25.09.2018 12:00:00 (CEST)
Date & Time tt [°C] td [°C] ff [km/h] ff [kn] dd ppp [hPa] vv [km] sd [min]
25.09.2018 12:00:00 24,0 20,9 28 15 E 1018,0 15 0
25.09.2018 11:00:00 24,0 21,3 31 17 E 1017,8 15 0
25.09.2018 10:00:00 23,8 21,5 34 18 E 1017,0 15 0
25.09.2018 09:00:00 23,8 21,5 34 18 E 1015,9 15 0
25.09.2018 08:00:00 24,0 22,1 34 18 E 1015,5 15 0
25.09.2018 07:00:00 - - - - - - - -
25.09.2018 06:00:00 - - - - - - - -
25.09.2018 05:00:00 - - - - - - - -
25.09.2018 04:00:00 - - - - - - - -
25.09.2018 03:00:00 - - - - - - - -
25.09.2018 02:00:00 - - - - - - - -
25.09.2018 01:00:00 - - - - - - - -
25.09.2018 00:00:00 - - - - - - - -
24.09.2018 23:00:00 - - - - - - - -
24.09.2018 22:00:00 - - - - - - - -
24.09.2018 21:00:00 - - - - - - - -
24.09.2018 20:00:00 25,0 22,5 11 6 WNW 1012,9 20 -
24.09.2018 19:00:00 25,6 22,7 15 8 W 1012,0 20 0
24.09.2018 18:00:00 26,0 22,5 18 10 WNW 1011,9 20 60
24.09.2018 17:00:00 26,6 22,5 22 12 W 1011,9 20 60
24.09.2018 16:00:00 26,8 22,4 21 11 W 1012,3 20 60
24.09.2018 15:00:00 27,0 22,0 21 11 W 1012,9 20 60
24.09.2018 14:00:00 27,2 20,0 18 10 W 1013,6 20 60
24.09.2018 13:00:00 26,8 21,3 16 9 W 1014,7 20 60
24.09.2018 12:00:00 26,4 21,6 16 9 W 1014,9 20 60
24.09.2018 11:00:00 26,2 21,9 15 8 W 1014,9 20 60
24.09.2018 10:00:00 25,4 22,3 13 7 W 1014,9 20 60
24.09.2018 09:00:00 24,6 21,9 11 6 W 1014,9 20 60
24.09.2018 08:00:00 23,6 21,7 8 4 WNW 1014,9 20 -
24.09.2018 07:00:00 - - - - - - - -
24.09.2018 06:00:00 - - - - - - - -
24.09.2018 05:00:00 - - - - - - - -
24.09.2018 04:00:00 - - - - - - - -
24.09.2018 03:00:00 - - - - - - - -
24.09.2018 02:00:00 - - - - - - - -
24.09.2018 01:00:00 - - - - - - - -
24.09.2018 00:00:00 - - - - - - - -
23.09.2018 23:00:00 - - - - - - - -
23.09.2018 22:00:00 - - - - - - - -
23.09.2018 21:00:00 - - - - - - - -
23.09.2018 20:00:00 25,6 22,3 9 5 W 1016,8 20 0
23.09.2018 19:00:00 26,2 22,3 11 6 W 1016,9 20 6
23.09.2018 18:00:00 27,2 21,7 13 7 W 1017,0 25 60
23.09.2018 17:00:00 27,8 21,6 13 7 W 1017,0 25 60
23.09.2018 16:00:00 27,8 20,6 13 7 W 1017,3 25 60
23.09.2018 15:00:00 28,0 21,1 11 6 W 1017,8 25 60
23.09.2018 14:00:00 27,8 20,9 9 5 WSW 1018,1 25 60
23.09.2018 13:00:00 27,6 20,9 11 6 SW 1018,2 25 60
23.09.2018 12:00:00 27,4 23,0 13 7 SW 1018,2 25 60
23.09.2018 11:00:00 27,0 20,3 4 2 S 1018,1 25 60
23.09.2018 10:00:00 26,6 21,6 2 1 SSE 1017,8 20 60
23.09.2018 09:00:00 25,4 21,1 0 0 N 1017,3 20 60
23.09.2018 08:00:00 23,2 19,4 0 0 N 1017,0 20 6
23.09.2018 07:00:00 - - - - - - - -
23.09.2018 06:00:00 - - - - - - - -
23.09.2018 05:00:00 - - - - - - - -
23.09.2018 04:00:00 - - - - - - - -
23.09.2018 03:00:00 - - - - - - - -
23.09.2018 02:00:00 - - - - - - - -
23.09.2018 01:00:00 - - - - - - - -
23.09.2018 00:00:00 - - - - - - - -
22.09.2018 23:00:00 - - - - - - - -
22.09.2018 22:00:00 - - - - - - - -
22.09.2018 21:00:00 - - - - - - - -
22.09.2018 20:00:00 25,4 22,1 8 4 WSW 1015,3 20 0
22.09.2018 19:00:00 26,0 21,9 9 5 WSW 1015,0 20 30
22.09.2018 18:00:00 26,6 21,9 11 6 WSW 1014,9 20 60
22.09.2018 17:00:00 27,2 21,9 11 6 WSW 1014,9 20 36
22.09.2018 16:00:00 27,4 21,7 9 5 W 1015,0 20 54
22.09.2018 15:00:00 27,2 21,2 11 6 WSW 1015,2 20 60
22.09.2018 14:00:00 27,0 21,7 9 5 W 1015,7 20 60
22.09.2018 13:00:00 27,0 22,0 11 6 SW 1015,8 20 60
22.09.2018 12:00:00 26,6 22,0 9 5 SW 1015,8 20 60
22.09.2018 11:00:00 26,0 21,7 9 5 SW 1015,7 20 60
22.09.2018 10:00:00 26,0 22,1 5 3 SW 1015,1 20 60
22.09.2018 09:00:00 25,6 22,7 0 0 N 1014,9 20 60
22.09.2018 08:00:00 22,8 20,0 0 0 N 1014,1 20 6
22.09.2018 07:00:00 - - - - - - - -
22.09.2018 06:00:00 - - - - - - - -
22.09.2018 05:00:00 - - - - - - - -
22.09.2018 04:00:00 - - - - - - - -
22.09.2018 03:00:00 - - - - - - - -
22.09.2018 02:00:00 - - - - - - - -
22.09.2018 01:00:00 - - - - - - - -
22.09.2018 00:00:00 - - - - - - - -
21.09.2018 23:00:00 - - - - - - - -
21.09.2018 22:00:00 - - - - - - - -
21.09.2018 21:00:00 - - - - - - - -
21.09.2018 20:00:00 25,0 21,9 0 0 N 1013,7 15 0
21.09.2018 19:00:00 25,4 21,9 4 2 SW 1013,0 18 42
21.09.2018 18:00:00 26,0 21,9 5 3 SSW 1012,9 20 60
21.09.2018 17:00:00 26,0 21,4 8 4 SSW 1013,0 18 60
21.09.2018 16:00:00 25,4 21,5 4 2 SSE 1013,7 18 48
21.09.2018 15:00:00 24,6 21,5 4 2 SSE 1013,8 15 48
21.09.2018 14:00:00 22,8 20,2 0 0 N 1013,9 14 0
21.09.2018 13:00:00 22,6 20,0 0 0 N 1014,4 10 0
21.09.2018 12:00:00 22,6 20,0 4 2 N 1014,8 10 0
21.09.2018 11:00:00 25,4 22,3 5 3 SE 1014,3 5 24
21.09.2018 10:00:00 25,4 22,3 8 4 ENE 1013,9 15 60
21.09.2018 09:00:00 24,0 21,3 5 3 NNE 1013,8 18 24
21.09.2018 08:00:00 22,6 20,0 4 2 N 1013,6 20 0
21.09.2018 07:00:00 - - - - - - - -
21.09.2018 06:00:00 - - - - - - - -
21.09.2018 05:00:00 - - - - - - - -
21.09.2018 04:00:00 - - - - - - - -
21.09.2018 03:00:00 - - - - - - - -
21.09.2018 02:00:00 - - - - - - - -
21.09.2018 01:00:00 - - - - - - - -
21.09.2018 00:00:00 - - - - - - - -
20.09.2018 23:00:00 - - - - - - - -
20.09.2018 22:00:00 - - - - - - - -
20.09.2018 21:00:00 - - - - - - - -
20.09.2018 20:00:00 25,0 21,3 0 0 N 1013,7 18 0
20.09.2018 19:00:00 26,4 21,2 4 2 W 1013,4 20 18
20.09.2018 18:00:00 27,0 21,1 8 4 WSW 1013,6 25 60
20.09.2018 17:00:00 27,0 21,5 8 4 W 1013,8 20 60
20.09.2018 16:00:00 27,0 22,0 13 7 WSW 1013,9 20 42
20.09.2018 15:00:00 27,0 22,4 9 5 WSW 1014,3 20 24
20.09.2018 14:00:00 27,0 22,2 11 6 SW 1014,9 20 48
20.09.2018 13:00:00 26,0 21,9 9 5 SW 1014,9 20 6
20.09.2018 12:00:00 26,0 21,9 8 4 SW 1015,8 20 18
20.09.2018 11:00:00 25,2 20,2 4 2 W 1015,8 20 0
20.09.2018 10:00:00 24,8 20,7 4 2 WNW 1015,7 20 0
20.09.2018 09:00:00 23,6 20,7 4 2 W 1015,4 15 0
20.09.2018 08:00:00 23,6 20,9 0 0 N 1014,9 15 0
20.09.2018 07:00:00 - - - - - - - -
20.09.2018 06:00:00 - - - - - - - -
20.09.2018 05:00:00 - - - - - - - -
20.09.2018 04:00:00 - - - - - - - -
20.09.2018 03:00:00 - - - - - - - -
20.09.2018 02:00:00 - - - - - - - -
20.09.2018 01:00:00 - - - - - - - -
20.09.2018 00:00:00 - - - - - - - -
19.09.2018 23:00:00 - - - - - - - -
19.09.2018 22:00:00 - - - - - - - -
19.09.2018 21:00:00 - - - - - - - -
19.09.2018 20:00:00 23,0 20,5 0 0 N 1016,0 10 -
19.09.2018 19:00:00 23,2 20,7 11 6 N 1016,1 10 0
19.09.2018 18:00:00 27,0 23,2 15 8 WNW 1015,9 15 42
19.09.2018 17:00:00 28,0 23,6 13 7 W 1015,7 20 60
19.09.2018 16:00:00 28,0 22,9 15 8 W 1015,9 20 60
19.09.2018 15:00:00 28,0 21,1 13 7 W 1016,0 20 60
19.09.2018 14:00:00 27,6 20,4 16 9 W 1016,3 20 60
19.09.2018 13:00:00 27,2 20,8 15 8 WSW 1016,8 20 60
19.09.2018 12:00:00 27,0 22,2 11 6 WSW 1016,9 20 60

tt = temperature
td = dewpoint
ff = wind speed
dd = wind direction
ppp = reduced air pressure
vv = visibility
sd = sunshine duration

Next stations